Theta_e
336 333 335 336 336 336 335 333 333 340 343 344 343 344 343 343 344 344 344 343 343 343 344 344 345 345 346 344 344 344 345 345 344 344 343 344 344 344 343 341 342 341 342
339 339 337 336 336 334 334 333 332 331 337 340 342 340 341 342 343 343 342 345 341 342 343 343 343 344 345 345 344 344 345 344 347 343 344 344 343 344 344 343 341 341 342
341 340 339 339 338 338 337 337 336 335 335 334 334 338 336 337 343 342 344 343 343 344 344 344 344 345 345 343 344 344 344 345 345 344 344 345 344 343 344 343 342 340 340
342 341 341 341 340 341 340 340 341 341 341 341 341 337 337 338 343 342 343 339 342 342 343 344 344 345 341 342 344 343 344 343 343 345 346 345 345 343 343 344 342 340 340
344 344 344 343 342 341 341 341 342 342 342 343 343 342 338 338 343 344 345 342 342 342 343 343 343 344 344 345 345 344 343 343 345 344 345 345 346 344 343 343 343 342 340
345 341 345 344 344 345 345 342 341 341 343 343 344 344 339 338 338 343 346 345 345 343 342 341 342 345 344 345 346 345 345 344 343 347 348 348 345 345 344 344 344 344 340
344 343 345 345 343 342 345 346 344 343 343 344 343 343 345 339 338 339 344 345 344 344 343 341 341 344 345 345 344 344 343 340 340 343 345 345 345 344 344 345 344 343 341
345 346 346 345 344 344 344 344 346 347 347 346 345 341 343 343 341 341 341 344 346 347 343 342 343 343 345 344 343 341 342 338 342 344 343 344 343 343 343 342 343 343 341
346 346 345 343 342 341 342 346 347 347 347 346 345 345 344 337 341 340 342 342 344 345 344 343 344 344 346 346 345 345 343 339 342 343 343 343 343 342 342 342 342 341 341
340 337 333 333 337 341 343 344 346 347 347 347 346 346 346 345 342 344 338 339 343 344 343 344 344 345 345 346 347 346 342 341 342 343 343 343 342 340 339 339 340 340 342
331 331 331 332 333 336 338 340 342 341 341 346 347 347 346 346 347 345 340 340 344 344 344 344 342 343 343 343 345 345 343 343 343 342 340 340 339 339 339 339 339 339 339
329 328 328 329 330 331 335 340 339 340 344 344 348 348 347 347 347 342 336 340 344 344 343 343 343 343 343 343 343 343 342 342 342 340 339 338 338 338 338 339 337 336 335
327 330 332 334 334 333 334 336 338 340 342 343 344 348 347 347 346 344 337 339 341 342 341 342 342 342 343 344 343 342 341 343 342 340 338 337 336 335 335 335 335 336 335
329 329 332 334 335 335 335 336 338 340 341 342 343 344 344 345 345 345 342 341 342 342 340 341 342 341 342 343 342 342 343 342 340 338 335 333 333 333 333 333 333 332 329
328 329 330 331 332 332 333 335 337 337 338 339 339 340 340 341 342 343 343 343 343 341 341 340 341 341 341 341 341 341 341 337 333 332 331 328 326 324 322 322 321 320 318
328 327 328 327 328 329 330 331 332 333 336 337 337 338 338 338 339 339 339 340 340 340 339 338 341 341 340 340 338 338 333 333 332 328 323 323 324 320 319 320 318 316 313
329 328 327 327 328 328 329 329 331 331 331 333 335 335 336 338 338 339 339 339 339 337 334 334 338 338 339 337 334 333 333 332 330 324 323 318 315 318 315 315 314 314 316
329 328 329 330 329 330 330 330 330 330 330 330 330 331 332 334 335 336 335 335 335 329 331 334 335 333 332 332 333 333 332 330 323 318 316 315 313 314 318 315 313 313 314
330 329 329 331 330 326 327 329 327 327 329 330 329 329 330 330 331 332 332 332 333 333 333 333 333 333 333 333 332 330 327 321 318 317 316 315 314 313 312 312 313 312 315
330 330 329 329 325 324 325 325 325 324 322 328 329 327 326 326 327 329 330 331 331 331 332 331 331 331 330 329 326 323 320 319 317 317 315 315 314 312 311 311 313 312 314
331 329 328 327 326 324 323 323 322 322 324 324 323 326 324 322 321 321 321 322 322 324 326 326 326 326 324 323 322 320 318 316 315 315 314 313 313 316 315 313 312 314 314
330 329 330 330 329 328 327 325 322 321 320 323 327 327 325 323 323 322 321 321 321 321 320 320 321 321 321 320 321 320 318 314 313 313 313 313 313 314 314 312 312 314 314
330 330 329 329 329 329 329 328 323 318 318 319 323 327 323 321 321 320 321 320 318 316 315 317 318 318 317 315 315 318 315 313 313 312 312 313 314 315 315 314 313 314 314
332 331 329 329 328 327 327 325 325 321 315 315 317 323 325 321 321 322 321 322 321 320 319 319 318 314 312 313 313 314 314 313 313 313 313 314 314 313 314 315 315 314 314
333 332 331 330 331 324 323 323 322 322 323 323 315 317 320 320 322 322 322 322 320 320 319 319 318 316 313 312 311 312 312 312 313 314 314 314 315 313 314 314 314 313 313
333 331 331 331 330 328 324 325 325 322 320 320 322 321 315 318 320 322 322 321 320 317 316 316 316 315 314 311 311 311 311 312 313 314 314 313 314 314 315 314 314 314 314
Wind_Speed
19 19 19 20 20 21 23 22 21 19 17 16 15 15 15 16 17 15 15 14 13 12 11 10 11 9 9 10 10 10 8 8 7 7 6 7 10 12 12 8 5 5 6
18 19 20 19 20 20 21 21 21 22 21 21 19 18 17 17 18 19 17 17 15 14 13 13 12 14 12 12 10 10 10 9 8 7 7 7 9 11 12 11 8 3 2
22 21 21 21 22 21 21 21 21 21 21 23 23 22 20 18 16 16 16 17 18 15 15 13 11 13 15 14 12 11 11 11 11 10 11 10 9 11 14 14 12 7 6
18 20 22 23 24 22 19 18 22 22 22 22 22 22 21 19 19 19 18 18 18 18 16 14 12 13 13 15 14 13 13 12 12 12 12 13 12 11 13 14 15 12 8
12 13 14 16 18 21 25 26 24 20 22 22 22 22 22 22 21 20 19 17 19 18 17 16 16 15 16 16 16 15 14 13 13 13 13 15 16 15 16 16 16 13 11
11 11 13 13 14 15 19 24 28 28 25 22 24 26 25 25 25 23 22 21 21 21 20 18 19 18 18 18 17 16 16 15 15 13 13 13 17 17 17 18 17 17 14
11 13 15 15 15 15 16 20 25 29 31 31 29 28 30 28 26 26 27 25 23 25 25 22 22 22 20 20 19 18 17 16 16 16 16 16 15 16 16 18 16 15 15
13 15 15 16 18 20 21 21 22 25 27 29 28 24 29 29 28 27 29 31 29 26 26 23 24 22 21 19 17 16 16 17 16 16 17 17 15 14 14 13 12 14 15
11 13 15 17 18 21 22 21 21 23 23 25 26 28 30 31 32 29 26 30 32 31 26 25 24 23 22 20 19 18 17 16 15 15 15 15 14 14 15 14 15 14 17
12 16 19 21 21 20 21 23 23 24 25 26 26 27 28 29 36 32 33 33 34 32 28 26 25 25 25 24 22 20 18 16 15 14 15 15 14 14 14 14 12 12 17
12 14 16 19 22 22 23 25 25 26 28 30 30 30 31 31 32 30 35 33 35 34 30 28 27 26 25 25 25 21 19 16 15 14 14 14 13 12 12 12 11 11 10
8 9 11 15 18 21 19 20 21 21 22 25 26 28 30 30 29 28 28 33 29 33 31 27 26 26 24 24 26 23 20 17 17 17 17 16 14 12 10 9 8 6 6
3 6 7 9 8 8 12 17 17 17 17 18 20 22 24 23 23 24 28 32 30 30 29 29 26 24 25 25 24 21 18 21 21 18 19 18 15 12 11 9 9 8 9
5 7 7 5 5 7 11 14 16 15 13 13 15 18 19 20 21 20 27 30 29 28 27 28 24 22 23 27 27 21 23 23 23 21 21 19 18 17 14 13 14 14 14
7 9 13 15 12 9 6 8 12 13 14 14 14 14 15 17 17 18 17 19 30 31 35 37 31 27 23 27 24 21 23 21 18 21 22 20 19 19 17 16 16 15 17
4 8 11 15 16 18 18 13 6 5 8 12 13 15 15 17 16 15 15 17 23 26 32 36 31 30 29 32 25 24 19 23 22 23 23 20 18 18 19 19 16 16 20
2 3 6 8 9 11 13 14 17 18 9 2 7 10 9 10 10 9 9 7 6 9 21 32 34 37 36 33 26 29 26 22 23 22 22 20 20 18 20 20 20 19 18
5 1 1 5 5 5 4 6 11 14 18 9 13 11 10 7 5 5 5 6 8 8 12 18 19 20 25 27 26 22 23 24 25 24 22 21 21 22 20 20 19 19 20
6 4 5 6 3 2 1 4 9 11 13 14 17 20 19 19 18 18 15 17 18 19 18 21 21 21 20 20 21 22 23 25 24 24 23 23 21 20 20 19 17 18 18
7 5 2 1 1 1 2 3 4 8 11 11 10 13 16 17 20 20 19 18 16 17 17 18 19 18 18 19 20 20 21 22 23 24 23 21 20 19 19 18 17 19 15
8 6 6 4 3 3 3 1 1 3 4 6 10 8 8 10 12 14 14 13 13 12 13 17 19 20 20 21 20 20 20 21 22 22 21 21 21 17 18 17 17 15 14
9 8 6 5 4 1 1 3 2 1 2 3 6 9 10 9 10 12 11 10 10 12 13 14 16 16 17 18 19 21 21 22 22 21 22 21 21 20 18 17 16 16 15
12 10 8 6 5 6 4 2 1 2 3 5 7 12 11 11 11 9 8 9 10 11 12 13 13 14 15 15 16 19 20 20 21 22 23 23 20 18 17 18 17 15 16
14 13 10 7 5 7 6 3 1 0 1 4 7 10 12 12 11 10 7 9 11 11 12 11 11 12 16 17 18 19 19 20 20 21 21 20 18 17 16 17 18 16 15
13 14 12 9 7 7 8 6 5 4 4 4 4 7 12 14 13 12 9 8 10 11 12 13 13 12 14 17 18 20 21 21 22 22 21 19 17 17 15 16 15 14 14
14 16 15 12 11 12 12 10 9 8 9 9 8 7 10 14 15 15 14 12 13 12 12 12 11 11 11 14 16 19 20 21 23 22 22 22 21 20 19 17 16 14 14
Wind_Direction
229 229 233 237 239 243 244 244 245 248 250 251 255 256 261 264 266 259 256 246 248 250 251 264 252 246 237 238 237 245 255 256 246 276 276 252 234 231 227 240 235 286 281
236 236 239 240 242 243 246 248 249 250 252 255 255 258 260 262 266 272 250 248 247 251 251 252 256 245 243 241 246 248 250 248 244 254 270 255 244 238 230 224 219 259 284
238 242 244 245 247 249 248 248 250 253 255 255 257 255 255 256 257 254 254 256 252 252 247 256 263 247 243 236 232 245 257 245 245 255 264 261 253 234 225 220 224 242 278
245 247 249 253 254 255 254 253 256 252 252 255 258 256 256 248 247 249 257 254 247 248 252 258 264 253 249 239 246 246 252 253 255 255 250 254 252 241 237 231 232 242 271
253 258 258 259 259 257 250 248 253 253 250 249 253 254 248 246 247 245 248 249 248 248 251 257 258 258 250 247 252 251 249 252 262 256 245 252 252 243 238 239 241 248 255
250 252 259 255 263 265 252 247 248 249 251 256 256 248 245 243 241 243 244 245 245 244 250 257 251 254 249 246 248 251 254 257 259 254 245 242 256 254 249 244 240 236 241
239 258 248 260 262 270 268 253 246 247 247 249 246 251 250 244 243 242 240 242 243 248 253 252 250 250 246 248 250 256 257 259 257 253 250 254 253 259 258 253 242 246 252
251 259 260 265 269 272 272 267 261 252 249 250 246 249 250 244 249 242 242 241 244 245 247 245 247 245 243 248 249 251 261 259 251 246 247 250 252 254 251 254 253 242 251
254 264 270 272 271 269 269 264 262 261 254 249 250 255 261 249 246 242 246 243 243 244 244 244 245 242 240 239 247 255 262 256 250 247 246 246 243 244 251 253 245 239 237
263 273 279 277 272 265 261 261 258 257 256 257 255 257 256 254 252 261 241 248 244 242 241 243 243 243 242 239 245 253 255 246 246 243 241 239 236 232 234 237 241 243 240
284 284 281 280 276 268 259 258 259 260 258 253 254 255 254 255 259 259 250 241 238 242 240 241 242 240 241 240 239 245 244 241 234 235 234 230 228 227 229 230 231 234 241
283 286 282 282 281 270 259 256 266 267 261 259 255 257 258 257 258 258 234 238 242 242 241 240 244 246 244 237 234 237 236 228 229 228 223 219 218 216 206 192 187 176 150
329 315 300 301 310 306 272 259 260 260 259 256 256 257 258 260 265 252 242 247 243 244 243 244 242 244 240 232 229 228 228 226 227 226 221 218 195 185 182 184 173 163 166
54 25 20 352 308 294 266 255 256 257 260 258 253 258 257 260 258 255 243 249 243 238 246 250 240 246 240 230 218 220 222 225 222 217 196 177 158 156 154 152 154 152 149
63 57 52 51 43 23 333 289 263 260 257 257 259 259 253 258 260 259 255 247 238 244 251 245 243 235 232 232 203 213 219 213 191 176 163 154 149 146 144 146 148 144 142
69 65 67 64 61 53 43 32 360 299 252 256 254 259 261 260 256 253 254 246 239 241 241 235 229 221 237 223 209 200 176 166 168 162 156 158 153 151 154 150 149 148 142
151 94 83 64 49 40 38 37 45 45 31 255 235 246 243 242 235 237 240 234 220 229 239 224 220 232 216 209 184 164 162 162 163 167 156 148 155 159 162 153 148 145 138
209 202 296 331 327 353 5 35 43 45 40 67 91 96 100 111 157 171 157 181 170 185 202 186 187 181 168 155 151 155 164 167 160 152 157 161 162 159 156 154 154 153 151
193 213 268 308 306 360 93 91 70 60 58 55 76 88 88 95 99 95 93 111 117 124 129 125 129 139 147 154 159 161 162 160 164 168 167 162 158 157 157 157 159 159 155
210 203 233 189 106 82 81 90 106 96 79 74 75 83 91 95 101 103 104 106 111 118 126 132 139 142 145 147 150 156 165 171 176 176 173 168 165 164 163 160 161 165 163
207 184 162 154 130 95 91 107 112 125 148 130 110 103 108 108 100 102 109 115 125 132 141 148 148 151 156 159 163 169 176 179 178 177 174 174 173 168 167 167 168 170 174
205 204 201 213 239 222 350 3 329 223 204 195 179 175 151 135 135 129 138 145 151 155 155 154 159 162 170 174 180 183 184 181 180 181 179 177 175 174 175 177 180 186 189
208 211 221 229 242 245 264 265 290 268 250 213 205 198 190 178 163 157 159 158 161 162 167 171 180 184 185 186 191 193 190 188 188 187 183 181 183 188 194 196 195 194 198
219 222 227 234 241 235 223 221 241 6 260 243 232 218 207 195 189 186 189 198 193 191 188 183 183 192 196 193 193 191 193 195 190 190 187 188 192 197 199 203 206 206 206
221 219 221 229 238 232 224 229 254 276 283 283 262 227 215 210 208 207 209 198 197 202 206 206 206 205 200 202 200 195 193 191 192 192 193 196 197 195 193 195 194 200 206
225 222 224 232 243 241 236 241 253 266 272 271 263 251 232 226 227 226 225 217 210 206 201 198 200 208 212 208 206 204 202 198 197 197 200 201 199 198 199 198 201 204 210